| time (UTC) | temp F | wind direction | speed MPH | gust MPH | rain 1hr in | rain 24hr in | rain mn in | humidity % | barometer mb |
| 20260505102017 | 55 | 0.0 | 0.0 | 0.00 | 0.00 | 0.00 | 55 | 1013.4 | |
| 20260505100517 | 55 | 0.0 | 0.0 | 0.00 | 0.00 | 0.00 | 55 | 1013.4 | |
| 20260505095017 | 55 | 0.0 | 0.0 | 0.00 | 0.00 | 0.00 | 56 | 1013.0 | |
| 20260505093517 | 56 | 0.0 | 0.0 | 0.00 | 0.00 | 0.00 | 54 | 1013.0 | |
| 20260505092017 | 56 | 225 | 1.0 | 2.0 | 0.00 | 0.00 | 0.00 | 54 | 1012.8 |
| 20260505090517 | 57 | 0.0 | 0.0 | 0.00 | 0.00 | 0.00 | 52 | 1012.8 | |
| 20260505085017 | 57 | 0.0 | 2.0 | 0.00 | 0.00 | 0.00 | 53 | 1012.6 | |
| 20260505083537 | 57 | 0.0 | 0.0 | 0.00 | 0.00 | 0.00 | 54 | 1012.5 | |
| 20260505082017 | 58 | 0.0 | 0.0 | 0.00 | 0.00 | 0.00 | 54 | 1012.5 | |
| 20260505080537 | 58 | 0.0 | 2.0 | 0.00 | 0.00 | 0.00 | 53 | 1012.3 | |
| 20260505075056 | 59 | 0.0 | 1.0 | 0.00 | 0.00 | 0.00 | 52 | 1012.1 | |
| 20260505073516 | 59 | 0.0 | 1.0 | 0.00 | 0.00 | 0.00 | 51 | 1012.0 | |
| 20260505072016 | 60 | 0.0 | 1.0 | 0.00 | 0.00 | 0.00 | 50 | 1011.8 | |
| 20260505070516 | 60 | 225 | 1.0 | 2.0 | 0.00 | 0.00 | 0.00 | 50 | 1011.5 |
| 20260505065015 | 60 | 0.0 | 1.0 | 0.00 | 0.00 | 0.00 | 48 | 1011.3 | |
| 20260505063515 | 61 | 0.0 | 1.0 | 0.00 | 0.00 | 0.00 | 48 | 1011.0 | |
| 20260505062016 | 62 | 0.0 | 1.0 | 0.00 | 0.00 | 0.00 | 49 | 1010.8 | |
| 20260505060516 | 61 | 0.0 | 2.0 | 0.00 | 0.00 | 0.00 | 49 | 1010.6 | |
| 20260505055015 | 62 | 0.0 | 0.0 | 0.00 | 0.00 | 0.00 | 48 | 1010.5 | |
| 20260505053515 | 62 | 0.0 | 2.0 | 0.00 | 0.00 | 0.00 | 47 | 1010.4 | |
| 20260505052015 | 63 | 0.0 | 1.0 | 0.00 | 0.00 | 0.00 | 46 | 1010.1 | |
| 20260505050515 | 64 | 0.0 | 1.0 | 0.00 | 0.00 | 0.00 | 46 | 1010.0 | |
| 20260505040535 | 66 | 225 | 1.0 | 2.0 | 0.00 | 0.00 | 0.00 | 47 | 1009.4 |
| 20260505035017 | 69 | 0.0 | 2.0 | 0.00 | 0.00 | 0.00 | 37 | 1009.3 | |
| 20260505033517 | 70 | 0.0 | 2.0 | 0.00 | 0.00 | 0.00 | 35 | 1009.1 | |
| 20260505032017 | 70 | 0.0 | 0.0 | 0.00 | 0.00 | 0.00 | 36 | 1008.9 | |
| 20260505030517 | 70 | 0.0 | 1.0 | 0.00 | 0.00 | 0.00 | 37 | 1008.8 | |
| 20260505025037 | 71 | 225 | 1.0 | 2.0 | 0.00 | 0.00 | 0.00 | 37 | 1008.5 |
| 20260505023517 | 73 | 0.0 | 1.0 | 0.00 | 0.00 | 0.00 | 37 | 1008.5 | |
| 20260505022017 | 72 | 0.0 | 0.0 | 0.00 | 0.00 | 0.00 | 37 | 1008.5 | |
| 20260505020517 | 73 | 0.0 | 1.0 | 0.00 | 0.00 | 0.00 | 36 | 1008.6 | |
| 20260505015017 | 74 | 0.0 | 1.0 | 0.00 | 0.00 | 0.00 | 36 | 1008.5 | |
| 20260505013517 | 75 | 270 | 2.0 | 4.0 | 0.00 | 0.00 | 0.00 | 36 | 1008.5 |
| 20260505012017 | 77 | 293 | 2.0 | 3.0 | 0.00 | 0.00 | 0.00 | 34 | 1008.5 |
| 20260505010557 | 78 | 113 | 2.0 | 3.0 | 0.00 | 0.00 | 0.00 | 31 | 1008.6 |
| 20260505005037 | 78 | 68 | 2.0 | 5.0 | 0.00 | 0.00 | 0.00 | 29 | 1008.8 |
| 20260505003517 | 79 | 45 | 2.0 | 6.0 | 0.00 | 0.00 | 0.00 | 31 | 1008.9 |
| 20260505002017 | 79 | 68 | 3.0 | 6.0 | 0.00 | 0.00 | 0.00 | 30 | 1009.0 |
| 20260505000516 | 79 | 68 | 2.0 | 7.0 | 0.00 | 0.00 | 0.00 | 32 | 1009.0 |
| 20260504235016 | 80 | 45 | 4.0 | 10.0 | 0.00 | 0.00 | 0.00 | 29 | 1009.1 |
| 20260504233517 | 79 | 45 | 4.0 | 9.0 | 0.00 | 0.00 | 0.00 | 29 | 1009.1 |
| 20260504232017 | 80 | 45 | 6.0 | 12.0 | 0.00 | 0.00 | 0.00 | 29 | 1009.1 |
| 20260504230516 | 81 | 45 | 5.0 | 13.0 | 0.00 | 0.00 | 0.00 | 27 | 1009.4 |
| 20260504225037 | 81 | 45 | 6.0 | 11.0 | 0.00 | 0.00 | 0.00 | 27 | 1009.4 |
| 20260504223517 | 81 | 68 | 3.0 | 9.0 | 0.00 | 0.00 | 0.00 | 28 | 1009.5 |
| 20260504222016 | 82 | 45 | 4.0 | 9.0 | 0.00 | 0.00 | 0.00 | 27 | 1009.7 |
| 20260504220516 | 82 | 45 | 4.0 | 8.0 | 0.00 | 0.00 | 0.00 | 26 | 1009.7 |
| 20260504215016 | 81 | 45 | 8.0 | 13.0 | 0.00 | 0.00 | 0.00 | 26 | 1009.9 |
| 20260504213557 | 80 | 45 | 8.0 | 15.0 | 0.00 | 0.00 | 0.00 | 26 | 1010.1 |
| 20260504212036 | 80 | 45 | 8.0 | 14.0 | 0.00 | 0.00 | 0.00 | 26 | 1010.2 |
| 20260504210516 | 79 | 45 | 9.0 | 13.0 | 0.00 | 0.00 | 0.00 | 27 | 1010.3 |
| 20260504205016 | 80 | 45 | 4.0 | 10.0 | 0.00 | 0.00 | 0.00 | 29 | 1010.6 |
| 20260504203516 | 78 | 45 | 6.0 | 12.0 | 0.00 | 0.00 | 0.00 | 29 | 1010.5 |
| 20260504202016 | 78 | 45 | 5.0 | 11.0 | 0.00 | 0.00 | 0.00 | 29 | 1010.7 |
| 20260504200516 | 79 | 68 | 5.0 | 10.0 | 0.00 | 0.00 | 0.00 | 28 | 1010.8 |
| 20260504195016 | 78 | 45 | 6.0 | 12.0 | 0.00 | 0.00 | 0.00 | 28 | 1011.0 |
| 20260504193516 | 78 | 45 | 4.0 | 11.0 | 0.00 | 0.00 | 0.00 | 30 | 1011.1 |
| 20260504192016 | 76 | 45 | 4.0 | 11.0 | 0.00 | 0.00 | 0.00 | 33 | 1011.4 |
| 20260504190516 | 75 | 45 | 4.0 | 9.0 | 0.00 | 0.00 | 0.00 | 32 | 1011.6 |
| 20260504185016 | 73 | 113 | 2.0 | 6.0 | 0.00 | 0.00 | 0.00 | 36 | 1011.7 |
| 20260504183516 | 72 | 68 | 3.0 | 6.0 | 0.00 | 0.00 | 0.00 | 39 | 1011.7 |
| 20260504182016 | 72 | 68 | 4.0 | 10.0 | 0.00 | 0.00 | 0.00 | 39 | 1012.0 |
| 20260504180516 | 70 | 45 | 3.0 | 8.0 | 0.00 | 0.00 | 0.00 | 40 | 1011.9 |
| 20260504175016 | 70 | 45 | 3.0 | 7.0 | 0.00 | 0.00 | 0.00 | 40 | 1012.1 |
| 20260504173516 | 68 | 45 | 3.0 | 8.0 | 0.00 | 0.00 | 0.00 | 44 | 1012.2 |
| 20260504172036 | 67 | 90 | 3.0 | 7.0 | 0.00 | 0.00 | 0.00 | 47 | 1012.3 |
| 20260504170516 | 67 | 90 | 2.0 | 5.0 | 0.00 | 0.00 | 0.00 | 46 | 1012.4 |
| 20260504150515 | 61 | 90 | 2.0 | 4.0 | 0.00 | 0.00 | 0.00 | 60 | 1012.8 |
| 20260504140515 | 57 | 0.0 | 2.0 | 0.00 | 0.00 | 0.00 | 61 | 1012.4 | |
| 20260504130515 | 54 | 0.0 | 2.0 | 0.00 | 0.00 | 0.00 | 60 | 1011.8 | |
| 20260504110515 | 54 | 293 | 1.0 | 2.0 | 0.00 | 0.00 | 0.00 | 55 | 1012.0 |